| time (UTC) | temp F | wind direction | speed knots | gust knots | rain 1hr in | rain 24hr in | rain mn in | humidity % | barometer mb |
| 20260505153104 | 71 | 293 | 0.0 | 2.6 | 0.00 | 0.00 | 0.00 | 49 | 1010.4 |
| 20260505152103 | 71 | 294 | 1.7 | 6.1 | 0.00 | 0.00 | 0.00 | 48 | 1010.3 |
| 20260505151124 | 71 | 302 | 0.0 | 3.5 | 0.00 | 0.00 | 0.00 | 52 | 1010.2 |
| 20260505130124 | 57 | 0.0 | 0.0 | 0.00 | 0.00 | 0.00 | 72 | 1008.8 | |
| 20260505124105 | 59 | 70 | 0.0 | 1.7 | 0.00 | 0.00 | 0.00 | 65 | 1008.4 |
| 20260505123104 | 59 | 243 | 0.0 | 1.7 | 0.00 | 0.00 | 0.00 | 64 | 1008.3 |
| 20260505122105 | 59 | 0.0 | 0.0 | 0.00 | 0.00 | 0.00 | 62 | 1008.2 | |
| 20260505121105 | 60 | 154 | 0.0 | 0.9 | 0.00 | 0.00 | 0.00 | 63 | 1008.1 |
| 20260505120105 | 60 | 133 | 0.0 | 1.7 | 0.00 | 0.00 | 0.00 | 62 | 1008.0 |
| 20260505115105 | 61 | 253 | 0.0 | 1.7 | 0.00 | 0.00 | 0.00 | 60 | 1007.9 |
| 20260505114105 | 61 | 0.0 | 0.0 | 0.00 | 0.00 | 0.00 | 58 | 1007.9 | |
| 20260505113106 | 62 | 129 | 0.0 | 1.7 | 0.00 | 0.00 | 0.00 | 58 | 1007.8 |
| 20260505112110 | 63 | 105 | 0.0 | 2.6 | 0.00 | 0.00 | 0.00 | 57 | 1007.7 |
| 20260505111107 | 64 | 0.0 | 0.0 | 0.00 | 0.00 | 0.00 | 56 | 1007.6 | |
| 20260505110126 | 64 | 128 | 0.0 | 1.7 | 0.00 | 0.00 | 0.00 | 54 | 1007.5 |
| 20260505102106 | 68 | 270 | 3.5 | 5.2 | 0.00 | 0.00 | 0.00 | 48 | 1007.1 |
| 20260505101107 | 70 | 261 | 4.3 | 6.1 | 0.00 | 0.00 | 0.00 | 46 | 1007.0 |
| 20260505100107 | 71 | 259 | 6.1 | 10.4 | 0.00 | 0.00 | 0.00 | 43 | 1007.0 |
| 20260505095107 | 71 | 241 | 7.0 | 11.3 | 0.00 | 0.00 | 0.00 | 42 | 1006.9 |
| 20260505094107 | 70 | 244 | 6.1 | 12.2 | 0.00 | 0.00 | 0.00 | 43 | 1006.8 |
| 20260505093107 | 69 | 254 | 4.3 | 9.6 | 0.00 | 0.00 | 0.00 | 45 | 1006.8 |
| 20260505092127 | 67 | 250 | 5.2 | 10.4 | 0.00 | 0.00 | 0.00 | 46 | 1006.8 |
| 20260505091107 | 66 | 250 | 1.7 | 4.3 | 0.00 | 0.00 | 0.00 | 49 | 1006.8 |
| 20260505090107 | 67 | 0.0 | 0.0 | 0.00 | 0.00 | 0.00 | 48 | 1006.8 | |
| 20260505085107 | 67 | 282 | 0.0 | 3.5 | 0.00 | 0.00 | 0.00 | 47 | 1006.7 |
| 20260505084108 | 67 | 241 | 4.3 | 6.1 | 0.00 | 0.00 | 0.00 | 49 | 1006.7 |
| 20260505083107 | 68 | 222 | 0.0 | 1.7 | 0.00 | 0.00 | 0.00 | 47 | 1006.8 |
| 20260505082108 | 70 | 43 | 0.0 | 3.5 | 0.00 | 0.00 | 0.00 | 45 | 1006.9 |
| 20260505081107 | 73 | 53 | 2.6 | 5.2 | 0.00 | 0.00 | 0.00 | 43 | 1007.0 |
| 20260505080108 | 74 | 276 | 4.3 | 7.0 | 0.00 | 0.00 | 0.00 | 38 | 1006.5 |
| 20260505075108 | 75 | 251 | 6.1 | 13.0 | 0.00 | 0.00 | 0.00 | 37 | 1006.4 |
| 20260505074109 | 75 | 242 | 4.3 | 8.7 | 0.00 | 0.00 | 0.00 | 37 | 1006.2 |
| 20260505073109 | 75 | 235 | 6.1 | 10.4 | 0.00 | 0.00 | 0.00 | 37 | 1006.1 |
| 20260505072130 | 74 | 231 | 6.1 | 10.4 | 0.00 | 0.00 | 0.00 | 37 | 1006.0 |
| 20260505071109 | 74 | 234 | 7.0 | 11.3 | 0.00 | 0.00 | 0.00 | 38 | 1006.0 |
| 20260505070129 | 74 | 239 | 5.2 | 8.7 | 0.00 | 0.00 | 0.00 | 39 | 1006.0 |
| 20260505065108 | 74 | 234 | 6.1 | 9.6 | 0.00 | 0.00 | 0.00 | 38 | 1006.0 |
| 20260505064110 | 74 | 233 | 5.2 | 9.6 | 0.00 | 0.00 | 0.00 | 38 | 1005.9 |
| 20260505063109 | 72 | 237 | 5.2 | 9.6 | 0.00 | 0.00 | 0.00 | 39 | 1005.8 |
| 20260505062109 | 67 | 246 | 5.2 | 9.6 | 0.00 | 0.00 | 0.00 | 46 | 1005.8 |
| 20260505061110 | 66 | 260 | 0.0 | 2.6 | 0.00 | 0.00 | 0.00 | 53 | 1005.9 |
| 20260505060109 | 66 | 262 | 0.0 | 1.7 | 0.00 | 0.00 | 0.00 | 51 | 1005.9 |
| 20260505055109 | 66 | 86 | 0.9 | 4.3 | 0.00 | 0.00 | 0.00 | 53 | 1005.9 |
| 20260505054110 | 68 | 58 | 1.7 | 5.2 | 0.00 | 0.00 | 0.00 | 51 | 1005.8 |
| 20260505053109 | 70 | 214 | 0.0 | 1.7 | 0.00 | 0.00 | 0.00 | 44 | 1005.6 |
| 20260505052110 | 70 | 198 | 0.0 | 1.7 | 0.00 | 0.00 | 0.00 | 43 | 1005.5 |
| 20260505051110 | 71 | 266 | 0.0 | 1.7 | 0.00 | 0.00 | 0.00 | 44 | 1005.5 |
| 20260505050130 | 72 | 278 | 0.9 | 3.5 | 0.00 | 0.00 | 0.00 | 44 | 1005.5 |
| 20260505041110 | 75 | 284 | 0.0 | 0.9 | 0.00 | 0.00 | 0.00 | 40 | 1004.9 |
| 20260505040131 | 76 | 294 | 1.7 | 4.3 | 0.00 | 0.00 | 0.00 | 39 | 1004.7 |
| 20260505035111 | 78 | 292 | 0.0 | 2.6 | 0.00 | 0.00 | 0.00 | 37 | 1004.7 |
| 20260505034112 | 79 | 184 | 0.0 | 4.3 | 0.00 | 0.00 | 0.00 | 34 | 1004.5 |
| 20260505033111 | 78 | 106 | 0.9 | 7.8 | 0.00 | 0.00 | 0.00 | 34 | 1004.4 |
| 20260505032111 | 78 | 93 | 0.0 | 3.5 | 0.00 | 0.00 | 0.00 | 34 | 1004.3 |
| 20260505031112 | 79 | 147 | 0.0 | 3.5 | 0.00 | 0.00 | 0.00 | 33 | 1004.3 |
| 20260505030111 | 79 | 281 | 0.0 | 2.6 | 0.00 | 0.00 | 0.00 | 32 | 1004.2 |
| 20260505025112 | 81 | 174 | 0.9 | 3.5 | 0.00 | 0.00 | 0.00 | 32 | 1004.1 |
| 20260505024112 | 84 | 91 | 0.0 | 3.5 | 0.00 | 0.00 | 0.00 | 33 | 1004.2 |
| 20260505023112 | 88 | 151 | 0.9 | 3.5 | 0.00 | 0.00 | 0.00 | 31 | 1004.2 |
| 20260505022132 | 92 | 157 | 0.9 | 3.5 | 0.00 | 0.00 | 0.00 | 27 | 1004.2 |
| 20260505021112 | 92 | 257 | 0.0 | 0.9 | 0.00 | 0.00 | 0.00 | 25 | 1004.2 |
| 20260505020233 | 92 | 196 | 0.0 | 0.9 | 0.00 | 0.00 | 0.00 | 25 | 1004.1 |
| 20260505015112 | 91 | 251 | 0.0 | 0.9 | 0.00 | 0.00 | 0.00 | 25 | 1004.1 |
| 20260505014133 | 91 | 254 | 1.7 | 3.5 | 0.00 | 0.00 | 0.00 | 26 | 1004.2 |
| 20260505013112 | 91 | 0.0 | 0.0 | 0.00 | 0.00 | 0.00 | 27 | 1004.3 | |
| 20260505012113 | 91 | 50 | 1.7 | 5.2 | 0.00 | 0.00 | 0.00 | 28 | 1004.4 |
| 20260505011113 | 91 | 44 | 0.0 | 4.3 | 0.00 | 0.00 | 0.00 | 27 | 1004.5 |
| 20260505010112 | 91 | 166 | 1.7 | 3.5 | 0.00 | 0.00 | 0.00 | 27 | 1004.5 |
| 20260505005113 | 90 | 92 | 0.9 | 4.3 | 0.00 | 0.00 | 0.00 | 26 | 1004.6 |
| 20260505004113 | 90 | 335 | 0.0 | 0.9 | 0.00 | 0.00 | 0.00 | 27 | 1004.6 |
| 20260505003134 | 90 | 331 | 0.0 | 0.9 | 0.00 | 0.00 | 0.00 | 27 | 1004.6 |
| 20260505002113 | 90 | 47 | 0.9 | 4.3 | 0.00 | 0.00 | 0.00 | 28 | 1004.6 |
| 20260505001113 | 88 | 97 | 1.7 | 4.3 | 0.00 | 0.00 | 0.00 | 28 | 1004.7 |
| 20260505000113 | 89 | 47 | 3.5 | 8.7 | 0.00 | 0.00 | 0.00 | 28 | 1004.7 |
| 20260504235114 | 89 | 82 | 0.0 | 2.6 | 0.00 | 0.00 | 0.00 | 27 | 1004.7 |
| 20260504234114 | 88 | 278 | 2.6 | 6.1 | 0.00 | 0.00 | 0.00 | 28 | 1004.7 |
| 20260504233114 | 88 | 284 | 5.2 | 8.7 | 0.00 | 0.00 | 0.00 | 28 | 1004.8 |
| 20260504232114 | 89 | 304 | 2.6 | 7.8 | 0.00 | 0.00 | 0.00 | 28 | 1004.9 |
| 20260504231114 | 89 | 20 | 1.7 | 7.8 | 0.00 | 0.00 | 0.00 | 28 | 1005.0 |
| 20260504230114 | 88 | 215 | 3.5 | 7.0 | 0.00 | 0.00 | 0.00 | 28 | 1005.0 |
| 20260504225114 | 88 | 232 | 2.6 | 6.1 | 0.00 | 0.00 | 0.00 | 27 | 1005.1 |
| 20260504224115 | 87 | 272 | 4.3 | 7.8 | 0.00 | 0.00 | 0.00 | 27 | 1005.2 |
| 20260504223115 | 87 | 231 | 7.0 | 12.2 | 0.00 | 0.00 | 0.00 | 28 | 1005.3 |
| 20260504222135 | 88 | 267 | 6.1 | 13.0 | 0.00 | 0.00 | 0.00 | 28 | 1005.4 |
| 20260504221135 | 87 | 270 | 0.9 | 4.3 | 0.00 | 0.00 | 0.00 | 27 | 1005.6 |
| 20260504220135 | 87 | 309 | 2.6 | 9.6 | 0.00 | 0.00 | 0.00 | 28 | 1005.7 |
| 20260504215115 | 87 | 323 | 0.9 | 3.5 | 0.00 | 0.00 | 0.00 | 28 | 1005.8 |
| 20260504214115 | 87 | 289 | 1.7 | 8.7 | 0.00 | 0.00 | 0.00 | 28 | 1005.9 |
| 20260504213115 | 87 | 356 | 0.9 | 5.2 | 0.00 | 0.00 | 0.00 | 28 | 1006.1 |
| 20260504212116 | 86 | 63 | 1.7 | 6.1 | 0.00 | 0.00 | 0.00 | 29 | 1006.2 |
| 20260504211116 | 86 | 21 | 0.9 | 3.5 | 0.00 | 0.00 | 0.00 | 30 | 1006.3 |
| 20260504210115 | 85 | 59 | 3.5 | 8.7 | 0.00 | 0.00 | 0.00 | 31 | 1006.3 |
| 20260504205116 | 86 | 61 | 4.3 | 9.6 | 0.00 | 0.00 | 0.00 | 32 | 1006.5 |
| 20260504204116 | 87 | 65 | 3.5 | 13.9 | 0.00 | 0.00 | 0.00 | 31 | 1006.6 |
| 20260504203116 | 87 | 67 | 1.7 | 7.0 | 0.00 | 0.00 | 0.00 | 31 | 1006.8 |
| 20260504202116 | 87 | 171 | 1.7 | 6.1 | 0.00 | 0.00 | 0.00 | 32 | 1006.9 |
| 20260504201116 | 85 | 151 | 0.0 | 2.6 | 0.00 | 0.00 | 0.00 | 33 | 1007.0 |
| 20260504200117 | 86 | 343 | 0.9 | 3.5 | 0.00 | 0.00 | 0.00 | 33 | 1007.1 |
| 20260504195136 | 85 | 229 | 1.7 | 5.2 | 0.00 | 0.00 | 0.00 | 32 | 1007.2 |
| 20260504194116 | 85 | 74 | 2.6 | 7.0 | 0.00 | 0.00 | 0.00 | 33 | 1007.2 |
| 20260504193137 | 84 | 42 | 0.9 | 5.2 | 0.00 | 0.00 | 0.00 | 32 | 1007.3 |
| 20260504192118 | 84 | 92 | 0.9 | 4.3 | 0.00 | 0.00 | 0.00 | 33 | 1007.3 |
| 20260504191137 | 83 | 316 | 0.0 | 2.6 | 0.00 | 0.00 | 0.00 | 33 | 1007.4 |
| 20260504190018 | 83 | 63 | 1.7 | 6.1 | 0.00 | 0.00 | 0.00 | 33 | 1007.5 |
| 20260504185017 | 82 | 171 | 2.6 | 7.8 | 0.00 | 0.00 | 0.00 | 34 | 1007.6 |
| 20260504184117 | 82 | 285 | 3.5 | 8.7 | 0.00 | 0.00 | 0.00 | 34 | 1007.6 |
| 20260504183117 | 82 | 268 | 3.5 | 6.1 | 0.00 | 0.00 | 0.00 | 35 | 1007.7 |
| 20260504182117 | 81 | 267 | 2.6 | 6.1 | 0.00 | 0.00 | 0.00 | 36 | 1007.8 |
| 20260504181018 | 81 | 296 | 4.3 | 8.7 | 0.00 | 0.00 | 0.00 | 37 | 1007.9 |
| 20260504180018 | 80 | 284 | 1.7 | 5.2 | 0.00 | 0.00 | 0.00 | 39 | 1008.0 |
| 20260504175018 | 79 | 292 | 4.3 | 7.0 | 0.00 | 0.00 | 0.00 | 39 | 1007.9 |
| 20260504174018 | 78 | 289 | 1.7 | 5.2 | 0.00 | 0.00 | 0.00 | 40 | 1008.1 |
| 20260504173138 | 77 | 289 | 1.7 | 6.1 | 0.00 | 0.00 | 0.00 | 39 | 1008.1 |
| 20260504172018 | 76 | 295 | 3.5 | 7.0 | 0.00 | 0.00 | 0.00 | 41 | 1008.1 |
| 20260504171018 | 75 | 293 | 3.5 | 7.0 | 0.00 | 0.00 | 0.00 | 41 | 1008.1 |